+ View the NASA Portal
+ Center for Near-Earth Object Studies
IMPORTANT:
The SSD Announcement email list is now available. Major changes are coming in the near future, including possible hostname and/or URL changes. To be notified of such changes, subscribe to this email list.
Please visit
this page
for more details.
Don't show this message again
JPL Small-Body Database Browser
Search:
[
help
]
233095 (2005 SJ3)
Classification:
Main-belt Asteroid
SPK-ID:
2233095
[
Ephemeris
|
Orbit Diagram
|
Orbital Elements
|
Mission Design
|
Physical Parameters
|
Discovery Circumstances
|
Close-Approach Data
]
[ show orbit diagram ]
Orbital Elements at Epoch 2458600.5 (2019-Apr-27.0) TDB
Reference:
JPL 15
(heliocentric ecliptic J2000)
Element
Value
Uncertainty (1-sigma)
Units
e
.1751090341798213
4.5687e-08
a
2.215804140828892
1.0977e-08
au
q
1.827796817796696
1.0234e-07
au
i
3.0605277733004
5.2058e-06
deg
node
322.8294340453174
9.9719e-05
deg
peri
353.6151964200931
0.00010123
deg
M
86.15788009922656
1.5738e-05
deg
t
p
2458312.171226059129
(2018-Jul-12.67122606)
5.2942e-05
TDB
period
1204.74596750954
3.30
8.9528e-06
2.451e-08
d
yr
n
.2988181821800945
2.2206e-09
deg/d
Q
2.603811463861088
1.29e-08
au
Orbit Determination Parameters
# obs. used (total)
401
data-arc span
9017 days (24.69 yr)
first obs. used
1994-03-07
last obs. used
2018-11-13
planetary ephem.
DE431
SB-pert. ephem.
SB431-N16
condition code
0
norm. resid. RMS
.57709
source
ORB
producer
Otto Matic
solution date
2019-Jul-14 04:39:07
Additional Information
Earth MOID
= .813464 au
Jupiter MOID
= 2.67424 au
T_jup
= 3.631
[ show covariance matrix ]
[
Ephemeris
|
Orbit Diagram
|
Orbital Elements
|
Mission Design
|
Physical Parameters
|
Discovery Circumstances
|
Close-Approach Data
]
Physical Parameter Table
Parameter
Symbol
Value
Units
Sigma
Reference
Notes
absolute magnitude
H
17.2
n/a
MPO407735
233095 (2005 SJ3)
Discovered 2005-Sep-23 by CSS at Catalina
Reference:
20100228/Numbers.arc
Last Updated:
2010-03-03
[ show close-approach data ]
[
Ephemeris
|
Orbit Diagram
|
Orbital Elements
|
Mission Design
|
Physical Parameters
|
Discovery Circumstances
|
Close-Approach Data
]
2019-Dec-09 00:08 UT
(server date/time)
Site Manager:
Ryan S. Park
Webmaster
:
Alan B. Chamberlin